Time,TemperatureF,DewpointF,PressureIn,WindDirection,WindDirectionDegrees,WindSpeedMPH,WindSpeedGustMPH,Humidity,HourlyPrecipIn,Conditions,Clouds,dailyrainin,SoftwareType,DateUTC
2013-01-31 00:09:00,13.6,4.7,29.68,NNW,337,0.0,0.0,67,0.00,,,0.00,open2300-1.11,2013-01-31 06:09:00,
2013-01-31 00:17:00,13.3,4.7,29.69,NNW,337,0.0,0.0,68,0.00,,,0.00,open2300-1.11,2013-01-31 06:17:00,
2013-01-31 00:27:00,13.3,4.7,29.69,NNW,337,0.0,0.0,68,0.00,,,0.00,open2300-1.11,2013-01-31 06:27:00,
2013-01-31 00:37:00,13.3,5.0,29.69,NNW,337,0.0,0.0,69,0.00,,,0.00,open2300-1.11,2013-01-31 06:37:00,
2013-01-31 00:47:00,13.3,5.4,29.69,NNW,337,0.0,0.0,70,0.00,,,0.00,open2300-1.11,2013-01-31 06:47:00,
2013-01-31 00:57:00,12.9,5.0,29.70,NNW,337,0.0,0.0,70,0.00,,,0.00,open2300-1.11,2013-01-31 06:57:00,
2013-01-31 01:07:00,12.7,4.8,29.70,NNW,337,0.0,0.0,70,0.00,,,0.00,open2300-1.11,2013-01-31 07:07:00,
2013-01-31 01:17:00,12.7,4.8,29.71,NNW,337,0.0,0.0,70,0.00,,,0.00,open2300-1.11,2013-01-31 07:17:00,
2013-01-31 01:27:00,12.7,4.8,29.71,NNW,337,0.0,0.0,70,0.00,,,0.00,open2300-1.11,2013-01-31 07:27:00,
2013-01-31 01:37:00,12.6,4.3,29.71,NNW,337,0.0,0.0,69,0.00,,,0.00,open2300-1.11,2013-01-31 07:37:00,
2013-01-31 01:47:00,12.6,4.3,29.71,NNW,337,0.0,0.0,69,0.00,,,0.00,open2300-1.11,2013-01-31 07:47:00,
2013-01-31 01:57:00,12.4,4.1,29.71,NNW,337,0.0,0.0,69,0.00,,,0.00,open2300-1.11,2013-01-31 07:57:00,
2013-01-31 02:07:00,12.2,3.9,29.72,NNW,337,0.0,0.0,69,0.00,,,0.00,open2300-1.11,2013-01-31 08:07:00,
2013-01-31 02:17:00,12.0,3.8,29.72,NNW,337,0.0,0.0,69,0.00,,,0.00,open2300-1.11,2013-01-31 08:17:00,
2013-01-31 02:27:00,12.0,3.8,29.72,NNW,337,0.0,0.0,69,0.00,,,0.00,open2300-1.11,2013-01-31 08:27:00,
2013-01-31 02:37:00,12.0,3.8,29.73,NNW,337,0.0,0.0,69,0.00,,,0.00,open2300-1.11,2013-01-31 08:37:00,
2013-01-31 02:47:00,12.0,3.8,29.72,NNW,337,0.0,0.0,69,0.00,,,0.00,open2300-1.11,2013-01-31 08:47:00,
2013-01-31 02:57:00,11.8,3.6,29.72,NNW,337,0.0,0.0,69,0.00,,,0.00,open2300-1.11,2013-01-31 08:57:00,
2013-01-31 03:07:00,11.8,3.6,29.73,NNW,337,0.0,0.0,69,0.00,,,0.00,open2300-1.11,2013-01-31 09:07:00,
2013-01-31 03:17:00,11.7,3.4,29.72,NNW,337,0.0,0.0,69,0.00,,,0.00,open2300-1.11,2013-01-31 09:17:00,
2013-01-31 03:27:00,11.7,3.7,29.73,NNW,337,0.0,0.0,70,0.00,,,0.00,open2300-1.11,2013-01-31 09:27:00,
2013-01-31 03:37:00,11.7,3.7,29.73,NNW,337,0.0,0.0,70,0.00,,,0.00,open2300-1.11,2013-01-31 09:37:00,
2013-01-31 03:47:00,11.7,3.7,29.73,NNW,337,0.0,0.0,70,0.00,,,0.00,open2300-1.11,2013-01-31 09:47:00,
2013-01-31 03:57:00,11.8,3.9,29.73,NNW,337,0.0,0.0,70,0.00,,,0.00,open2300-1.11,2013-01-31 09:57:00,
2013-01-31 04:07:00,12.0,4.1,29.74,NNW,337,0.0,0.0,70,0.00,,,0.00,open2300-1.11,2013-01-31 10:07:00,
2013-01-31 04:17:00,11.8,3.9,29.74,NNW,337,0.0,0.0,70,0.00,,,0.00,open2300-1.11,2013-01-31 10:17:00,
2013-01-31 04:27:00,11.8,3.9,29.74,NNW,337,0.0,0.0,70,0.00,,,0.00,open2300-1.11,2013-01-31 10:27:00,
2013-01-31 04:37:00,11.3,3.4,29.74,NNW,337,0.0,0.0,70,0.00,,,0.00,open2300-1.11,2013-01-31 10:37:00,
2013-01-31 04:47:00,10.9,3.0,29.74,NNW,337,0.0,0.0,70,0.00,,,0.00,open2300-1.11,2013-01-31 10:47:00,
2013-01-31 04:57:00,10.6,2.7,29.75,NNW,337,0.0,0.0,70,0.00,,,0.00,open2300-1.11,2013-01-31 10:57:00,
2013-01-31 05:07:00,10.2,2.3,29.75,NNW,337,0.0,0.0,70,0.00,,,0.00,open2300-1.11,2013-01-31 11:07:00,
2013-01-31 05:17:00,9.7,1.8,29.75,NNW,337,0.0,0.0,70,0.00,,,0.00,open2300-1.11,2013-01-31 11:17:00,
2013-01-31 05:27:00,9.7,1.8,29.75,NNW,337,0.0,0.0,70,0.00,,,0.00,open2300-1.11,2013-01-31 11:27:00,
2013-01-31 05:37:00,9.5,1.7,29.76,NNW,337,0.0,0.0,70,0.00,,,0.00,open2300-1.11,2013-01-31 11:37:00,
2013-01-31 05:47:00,9.3,1.5,29.76,NNW,337,0.0,0.0,70,0.00,,,0.00,open2300-1.11,2013-01-31 11:47:00,
2013-01-31 05:57:00,9.1,1.4,29.77,NNW,337,0.0,0.0,70,0.00,,,0.00,open2300-1.11,2013-01-31 11:57:00,
2013-01-31 06:07:00,9.1,1.4,29.77,NNW,337,0.0,0.0,70,0.00,,,0.00,open2300-1.11,2013-01-31 12:07:00,
2013-01-31 06:17:00,8.8,1.0,29.78,NNW,337,0.0,0.0,70,0.00,,,0.00,open2300-1.11,2013-01-31 12:17:00,
2013-01-31 06:27:00,8.4,0.7,29.79,NNW,337,0.0,0.0,70,0.00,,,0.00,open2300-1.11,2013-01-31 12:27:00,
2013-01-31 06:37:00,8.2,0.5,29.79,NNW,337,0.0,0.0,70,0.00,,,0.00,open2300-1.11,2013-01-31 12:37:00,
2013-01-31 06:47:00,7.9,-0.2,29.79,NNW,337,0.0,0.0,69,0.00,,,0.00,open2300-1.11,2013-01-31 12:47:00,
2013-01-31 06:57:00,7.5,-0.6,29.80,NNW,337,0.0,0.0,69,0.00,,,0.00,open2300-1.11,2013-01-31 12:57:00,
2013-01-31 07:07:00,7.5,-0.6,29.80,NNW,337,0.0,0.0,69,0.00,,,0.00,open2300-1.11,2013-01-31 13:07:00,
2013-01-31 07:17:00,7.5,-0.6,29.81,NNW,337,0.0,0.0,69,0.00,,,0.00,open2300-1.11,2013-01-31 13:17:00,
2013-01-31 07:27:00,7.3,-0.7,29.81,NNW,337,0.0,0.0,69,0.00,,,0.00,open2300-1.11,2013-01-31 13:27:00,
2013-01-31 07:37:00,7.3,-0.7,29.83,NNW,337,0.0,0.0,69,0.00,,,0.00,open2300-1.11,2013-01-31 13:37:00,
2013-01-31 07:47:00,7.5,-0.6,29.83,NNW,337,0.0,0.0,69,0.00,,,0.00,open2300-1.11,2013-01-31 13:47:00,
2013-01-31 07:57:00,7.3,-0.7,29.83,NNW,337,0.0,0.0,69,0.00,,,0.00,open2300-1.11,2013-01-31 13:57:00,
2013-01-31 08:07:00,7.2,-0.9,29.83,NNW,337,0.0,0.0,69,0.00,,,0.00,open2300-1.11,2013-01-31 14:07:00,
2013-01-31 08:17:00,7.0,-1.1,29.85,NNW,337,0.0,0.0,69,0.00,,,0.00,open2300-1.11,2013-01-31 14:17:00,
2013-01-31 08:27:00,7.0,-1.1,29.85,NNW,337,0.0,0.0,69,0.00,,,0.00,open2300-1.11,2013-01-31 14:27:00,
2013-01-31 08:37:00,7.0,-1.1,29.85,NNW,337,0.0,0.0,69,0.00,,,0.00,open2300-1.11,2013-01-31 14:37:00,
2013-01-31 08:47:00,7.2,-0.9,29.85,NNW,337,0.0,0.0,69,0.00,,,0.00,open2300-1.11,2013-01-31 14:47:00,
2013-01-31 08:57:00,7.0,-1.1,29.86,NNW,337,0.0,0.0,69,0.00,,,0.00,open2300-1.11,2013-01-31 14:57:00,
2013-01-31 09:07:00,7.0,-1.1,29.86,NNW,337,0.0,0.0,69,0.00,,,0.00,open2300-1.11,2013-01-31 15:07:00,
2013-01-31 09:17:00,7.2,-0.9,29.86,NNW,337,0.0,0.0,69,0.00,,,0.00,open2300-1.11,2013-01-31 15:17:00,
2013-01-31 09:27:00,7.0,-1.1,29.87,NNW,337,0.0,0.0,69,0.00,,,0.00,open2300-1.11,2013-01-31 15:27:00,
2013-01-31 09:37:00,7.0,-1.4,29.87,NNW,337,0.0,0.0,68,0.00,,,0.00,open2300-1.11,2013-01-31 15:37:00,
2013-01-31 09:47:00,7.3,-1.1,29.88,NNW,337,0.0,0.0,68,0.00,,,0.00,open2300-1.11,2013-01-31 15:47:00,
2013-01-31 09:57:00,7.7,-0.7,29.89,NNW,337,0.0,0.0,68,0.00,,,0.00,open2300-1.11,2013-01-31 15:57:00,
2013-01-31 10:07:00,7.9,-0.9,29.89,NNW,337,0.0,0.0,67,0.00,,,0.00,open2300-1.11,2013-01-31 16:07:00,
2013-01-31 10:17:00,7.5,-1.2,29.90,NNW,337,0.0,0.0,67,0.00,,,0.00,open2300-1.11,2013-01-31 16:17:00,
2013-01-31 10:27:00,7.7,-1.4,29.90,NNW,337,0.0,0.0,66,0.00,,,0.00,open2300-1.11,2013-01-31 16:27:00,
2013-01-31 10:37:00,8.4,-0.3,29.90,NNW,337,0.0,0.0,67,0.00,,,0.00,open2300-1.11,2013-01-31 16:37:00,
2013-01-31 10:47:00,9.0,-0.2,29.91,NNW,337,0.0,0.0,66,0.00,,,0.00,open2300-1.11,2013-01-31 16:47:00,
2013-01-31 10:57:00,9.5,0.3,29.91,NNW,337,0.0,0.0,66,0.00,,,0.00,open2300-1.11,2013-01-31 16:57:00,
2013-01-31 11:07:00,9.7,0.2,29.92,NNW,337,0.0,0.0,65,0.00,,,0.00,open2300-1.11,2013-01-31 17:07:00,
2013-01-31 11:17:00,9.3,-0.5,29.91,NNW,337,0.0,0.0,64,0.00,,,0.00,open2300-1.11,2013-01-31 17:17:00,
2013-01-31 11:27:00,9.5,-0.3,29.92,NNW,337,0.0,0.0,64,0.00,,,0.00,open2300-1.11,2013-01-31 17:27:00,
2013-01-31 11:37:00,9.5,-0.3,29.92,NNW,337,0.0,0.0,64,0.00,,,0.00,open2300-1.11,2013-01-31 17:37:00,
2013-01-31 11:47:00,9.0,-1.2,29.92,NNW,337,0.0,0.0,63,0.00,,,0.00,open2300-1.11,2013-01-31 17:47:00,
2013-01-31 11:57:00,8.8,-1.4,29.93,NNW,337,0.0,0.0,63,0.00,,,0.00,open2300-1.11,2013-01-31 17:57:00,
2013-01-31 12:07:00,9.1,-1.0,29.93,NNW,337,0.0,0.0,63,0.00,,,0.00,open2300-1.11,2013-01-31 18:07:00,
2013-01-31 12:17:00,9.3,-0.9,29.93,NNW,337,0.0,0.0,63,0.00,,,0.00,open2300-1.11,2013-01-31 18:17:00,
2013-01-31 12:27:00,9.5,-0.7,29.93,NNW,337,0.0,0.0,63,0.00,,,0.00,open2300-1.11,2013-01-31 18:27:00,
2013-01-31 12:37:00,9.7,-0.5,29.93,NNW,337,0.0,0.0,63,0.00,,,0.00,open2300-1.11,2013-01-31 18:37:00,
2013-01-31 12:47:00,9.7,-0.8,29.94,NNW,337,0.0,0.0,62,0.00,,,0.00,open2300-1.11,2013-01-31 18:47:00,
2013-01-31 12:57:00,9.7,-0.8,29.93,NNW,337,0.0,0.0,62,0.00,,,0.00,open2300-1.11,2013-01-31 18:57:00,
2013-01-31 13:07:00,9.7,-0.8,29.93,NNW,337,0.0,0.0,62,0.00,,,0.00,open2300-1.11,2013-01-31 19:07:00,
2013-01-31 13:17:00,10.0,-0.5,29.94,NNW,337,0.0,0.0,62,0.00,,,0.00,open2300-1.11,2013-01-31 19:17:00,
2013-01-31 13:27:00,10.0,-0.5,29.94,NNW,337,0.0,0.0,62,0.00,,,0.00,open2300-1.11,2013-01-31 19:27:00,
2013-01-31 13:37:00,10.0,-0.5,29.95,NNW,337,0.0,0.0,62,0.00,,,0.00,open2300-1.11,2013-01-31 19:37:00,
2013-01-31 13:47:00,9.5,-1.3,29.95,NNW,337,0.0,0.0,61,0.00,,,0.00,open2300-1.11,2013-01-31 19:47:00,
2013-01-31 13:57:00,9.3,-1.5,29.95,NNW,337,0.0,0.0,61,0.00,,,0.00,open2300-1.11,2013-01-31 19:57:00,
2013-01-31 14:07:00,9.3,-1.2,29.95,NNW,337,0.0,0.0,62,0.00,,,0.00,open2300-1.11,2013-01-31 20:07:00,
2013-01-31 14:17:00,9.3,-1.2,29.95,NNW,337,0.0,0.0,62,0.00,,,0.00,open2300-1.11,2013-01-31 20:17:00,
2013-01-31 14:27:00,9.7,-0.8,29.96,NNW,337,0.0,0.0,62,0.00,,,0.00,open2300-1.11,2013-01-31 20:27:00,
2013-01-31 14:37:00,9.3,-0.9,29.96,NNW,337,0.0,0.0,63,0.00,,,0.00,open2300-1.11,2013-01-31 20:37:00,
2013-01-31 14:47:00,9.7,-0.5,29.97,NNW,337,0.0,0.0,63,0.00,,,0.00,open2300-1.11,2013-01-31 20:47:00,
2013-01-31 14:57:00,9.5,-0.7,29.97,NNW,337,0.0,0.0,63,0.00,,,0.00,open2300-1.11,2013-01-31 20:57:00,
2013-01-31 15:07:00,9.3,-0.9,29.98,NNW,337,0.0,0.0,63,0.00,,,0.00,open2300-1.11,2013-01-31 21:07:00,
2013-01-31 15:17:00,9.1,-1.4,29.99,NNW,337,0.0,0.0,62,0.00,,,0.00,open2300-1.11,2013-01-31 21:17:00,
2013-01-31 15:27:00,9.1,-1.4,30.00,NNW,337,0.0,0.0,62,0.00,,,0.00,open2300-1.11,2013-01-31 21:27:00,
2013-01-31 15:37:00,9.1,-1.4,30.00,NNW,337,0.0,0.0,62,0.00,,,0.00,open2300-1.11,2013-01-31 21:37:00,
2013-01-31 15:47:00,9.0,-1.5,30.01,NNW,337,0.0,0.0,62,0.00,,,0.00,open2300-1.11,2013-01-31 21:47:00,
2013-01-31 15:57:00,9.0,-1.5,30.01,NNW,337,0.0,0.0,62,0.00,,,0.00,open2300-1.11,2013-01-31 21:57:00,
2013-01-31 16:07:00,8.4,-2.1,30.01,NNW,337,0.0,0.0,62,0.00,,,0.00,open2300-1.11,2013-01-31 22:07:00,
2013-01-31 16:17:00,8.4,-2.1,30.02,NNW,337,0.0,0.0,62,0.00,,,0.00,open2300-1.11,2013-01-31 22:17:00,
2013-01-31 16:27:00,7.9,-2.5,30.03,NNW,337,0.0,0.0,62,0.00,,,0.00,open2300-1.11,2013-01-31 22:27:00,
2013-01-31 16:37:00,7.5,-2.5,30.03,NNW,337,0.0,0.0,63,0.00,,,0.00,open2300-1.11,2013-01-31 22:37:00,
2013-01-31 16:47:00,7.2,-2.9,30.03,NNW,337,0.0,0.0,63,0.00,,,0.00,open2300-1.11,2013-01-31 22:47:00,
2013-01-31 16:57:00,7.2,-2.9,30.04,NNW,337,0.0,0.0,63,0.00,,,0.00,open2300-1.11,2013-01-31 22:57:00,
2013-01-31 17:07:00,6.6,-3.1,30.04,NNW,337,0.0,0.0,64,0.00,,,0.00,open2300-1.11,2013-01-31 23:07:00,
2013-01-31 17:17:00,6.4,-3.2,30.05,NNW,337,0.0,0.0,64,0.00,,,0.00,open2300-1.11,2013-01-31 23:17:00,
2013-01-31 17:27:00,6.1,-3.3,30.05,NNW,337,0.0,0.0,65,0.00,,,0.00,open2300-1.11,2013-01-31 23:27:00,
2013-01-31 17:37:00,6.1,-3.6,30.06,NNW,337,0.0,0.0,64,0.00,,,0.00,open2300-1.11,2013-01-31 23:37:00,
2013-01-31 17:47:00,5.9,-3.8,30.06,NNW,337,0.0,0.0,64,0.00,,,0.00,open2300-1.11,2013-01-31 23:47:00,
2013-01-31 17:57:00,5.7,-4.0,30.07,NNW,337,0.0,0.0,64,0.00,,,0.00,open2300-1.11,2013-01-31 23:57:00,
2013-01-31 18:07:00,5.5,-4.1,30.07,NNW,337,0.0,0.0,64,0.00,,,0.00,open2300-1.11,2013-02-01 00:07:00,
2013-01-31 18:17:00,5.5,-4.1,30.08,NNW,337,0.0,0.0,64,0.00,,,0.00,open2300-1.11,2013-02-01 00:17:00,
2013-01-31 18:27:00,5.5,-4.1,30.08,NNW,337,0.0,0.0,64,0.00,,,0.00,open2300-1.11,2013-02-01 00:27:00,
2013-01-31 18:37:00,5.5,-4.1,30.09,NNW,337,0.0,0.0,64,0.00,,,0.00,open2300-1.11,2013-02-01 00:37:00,
2013-01-31 18:47:00,5.4,-4.3,30.09,NNW,337,0.0,0.0,64,0.00,,,0.00,open2300-1.11,2013-02-01 00:47:00,
2013-01-31 18:57:00,5.4,-4.3,30.10,NNW,337,0.0,0.0,64,0.00,,,0.00,open2300-1.11,2013-02-01 00:57:00,
2013-01-31 19:07:00,5.2,-4.5,30.10,NNW,337,0.0,0.0,64,0.00,,,0.00,open2300-1.11,2013-02-01 01:07:00,
2013-01-31 19:17:00,5.2,-4.5,30.10,NNW,337,0.0,0.0,64,0.00,,,0.00,open2300-1.11,2013-02-01 01:17:00,
2013-01-31 19:27:00,5.2,-4.5,30.10,NNW,337,0.0,0.0,64,0.00,,,0.00,open2300-1.11,2013-02-01 01:27:00,
2013-01-31 19:37:00,5.2,-4.5,30.11,NNW,337,0.0,0.0,64,0.00,,,0.00,open2300-1.11,2013-02-01 01:37:00,
2013-01-31 19:47:00,4.8,-4.8,30.11,NNW,337,0.0,0.0,64,0.00,,,0.00,open2300-1.11,2013-02-01 01:47:00,
2013-01-31 19:57:00,4.8,-4.8,30.11,NNW,337,0.0,0.0,64,0.00,,,0.00,open2300-1.11,2013-02-01 01:57:00,
2013-01-31 20:07:00,4.8,-4.8,30.12,NNW,337,0.0,0.0,64,0.00,,,0.00,open2300-1.11,2013-02-01 02:07:00,
2013-01-31 20:17:00,4.8,-5.2,30.12,NNW,337,0.0,0.0,63,0.00,,,0.00,open2300-1.11,2013-02-01 02:17:00,
2013-01-31 20:27:00,4.8,-5.2,30.13,NNW,337,0.0,0.0,63,0.00,,,0.00,open2300-1.11,2013-02-01 02:27:00,
2013-01-31 20:37:00,4.5,-5.5,30.13,NNW,337,0.0,0.0,63,0.00,,,0.00,open2300-1.11,2013-02-01 02:37:00,
2013-01-31 20:47:00,4.5,-5.5,30.13,NNW,337,0.0,0.0,63,0.00,,,0.00,open2300-1.11,2013-02-01 02:47:00,
2013-01-31 20:57:00,4.1,-5.8,30.13,NNW,337,0.0,0.0,63,0.00,,,0.00,open2300-1.11,2013-02-01 02:57:00,
2013-01-31 21:07:00,3.9,-6.0,30.14,NNW,337,0.0,0.0,63,0.00,,,0.00,open2300-1.11,2013-02-01 03:07:00,
2013-01-31 21:17:00,3.9,-6.0,30.14,NNW,337,0.0,0.0,63,0.00,,,0.00,open2300-1.11,2013-02-01 03:17:00,
2013-01-31 21:27:00,3.7,-6.1,30.14,NNW,337,0.0,0.0,63,0.00,,,0.00,open2300-1.11,2013-02-01 03:27:00,
2013-01-31 21:37:00,3.6,-6.3,30.15,NNW,337,0.0,0.0,63,0.00,,,0.00,open2300-1.11,2013-02-01 03:37:00,
2013-01-31 21:47:00,3.4,-6.5,30.15,NNW,337,0.0,0.0,63,0.00,,,0.00,open2300-1.11,2013-02-01 03:47:00,
2013-01-31 21:57:00,3.0,-6.8,30.16,NNW,337,0.0,0.0,63,0.00,,,0.00,open2300-1.11,2013-02-01 03:57:00,
2013-01-31 22:07:00,2.8,-7.3,30.16,NNW,337,0.0,0.0,62,0.00,,,0.00,open2300-1.11,2013-02-01 04:07:00,
2013-01-31 22:17:00,2.5,-7.3,30.16,NNW,337,0.0,0.0,63,0.00,,,0.00,open2300-1.11,2013-02-01 04:17:00,
2013-01-31 22:27:00,2.1,-7.7,30.16,NNW,337,0.0,0.0,63,0.00,,,0.00,open2300-1.11,2013-02-01 04:27:00,
2013-01-31 22:37:00,1.9,-7.9,30.16,NNW,337,0.0,0.0,63,0.00,,,0.00,open2300-1.11,2013-02-01 04:37:00,
2013-01-31 22:47:00,1.9,-7.9,30.17,NNW,337,0.0,0.0,63,0.00,,,0.00,open2300-1.11,2013-02-01 04:47:00,
2013-01-31 22:57:00,1.6,-8.2,30.17,NNW,337,0.0,0.0,63,0.00,,,0.00,open2300-1.11,2013-02-01 04:57:00,
2013-01-31 23:07:00,1.2,-8.6,30.17,NNW,337,0.0,0.0,63,0.00,,,0.00,open2300-1.11,2013-02-01 05:07:00,
2013-01-31 23:17:00,1.0,-8.8,30.17,NNW,337,0.0,0.0,63,0.00,,,0.00,open2300-1.11,2013-02-01 05:17:00,
2013-01-31 23:27:00,0.7,-9.4,30.18,NNW,337,0.0,0.0,62,0.00,,,0.00,open2300-1.11,2013-02-01 05:27:00,
2013-01-31 23:37:00,0.5,-9.3,30.18,NNW,337,0.0,0.0,63,0.00,,,0.00,open2300-1.11,2013-02-01 05:37:00,
2013-01-31 23:47:00,0.3,-9.4,30.19,NNW,337,0.0,0.0,63,0.00,,,0.00,open2300-1.11,2013-02-01 05:47:00,
2013-01-31 23:57:00,0.3,-9.4,30.19,NNW,337,0.0,0.0,63,0.00,,,0.00,open2300-1.11,2013-02-01 05:57:00,